User: anonymous   Login
Location: Waldport
(44.4270°N, 124.0680°W)
Time: 17:41:35
(UTC-08:00)
Language:

Cosmos 1570 Rocket - Orbit

View from above orbital plane
View from above orbital plane
View from above satellite
View from above satellite

Ground track
Ground track

The orbit data is extracted from the following two-line orbital elements,

1 15032U 84056B   17326.57485705 +.00000132 +00000-0 +55646-4 0  9990
2 15032 074.0688 146.6771 0018398 269.1010 090.8034 14.34729461749360
Epoch (UTC): 22 November 2017 13:47:47
Eccentricity: 0.0018398
inclination: 74.0688°
perigee height: 763 km
apogee height: 789 km
right ascension of ascending node: 146.6771°
argument of perigee: 269.1010°
revolutions per day: 14.34729461
mean anomaly at epoch: 90.8034°
orbit number at epoch: 74936

The dashed part of the orbit path shows where the satellite is in the earth's shadow,  

DLR